Everett, WA

4:39 AM PDT on September 17, 2019 (GMT -0700)
Snohomish County

Weather History for KPAE - August, 2019

Change the Weather History Date:

Thursday, August 22, 2019

  Actual Average Record
Temperature  
Mean Temperature 62 °F -  
Max Temperature 71 °F 73 °F 85 °F (1986)
Min Temperature 54 °F 52 °F 42 °F (1951)
Degree Days  
Heating Degree Days 3    
Growing Degree Days 12 (Base 50)    
Moisture  
Dew Point 52 °F    
Average Humidity 79    
Maximum Humidity 100    
Minimum Humidity 49    
Precipitation  
Precipitation 0.00 in - - ()
Sea Level Pressure  
Sea Level Pressure 30.07 in    
Wind  
Wind Speed 4 mph (WNW)    
Max Wind Speed 8 mph    
Max Gust Speed -    
Visibility 8 miles    
Events Fog    
Averages and records for this station are not official NWS values.
T = Trace of Precipitation, MM = Missing Value Source: NWS Daily Summary

Daily Weather History Graph

Daily Weather History Graph

Search for Another Location

Airport or City:

Astronomy

Aug. 22, 2019 Rise Set
Actual Time 6:13 AM PDT 8:09 PM PDT
Civil Twilight 5:40 AM PDT 8:42 PM PDT
Nautical Twilight 4:59 AM PDT 9:23 PM PDT
Astronomical Twilight 4:13 AM PDT 10:08 PM PDT
Moon 11:31 PM PDT (8/22) 1:24 PM PDT (8/22)
Length of Visible Light 15h 02m
Length of Day
13h 56m
Waning Gibbous, 58% of the Moon is Illuminated
Aug 22
Waning Gibbous
Aug 23
Last Quarter
Aug 30
New
Sep 5
First Quarter
Sep 13
Full

Hourly Weather History & Observations

Time (PDT) Temp. Dew Point Humidity Pressure Visibility Wind Dir Wind Speed Gust Speed Precip Events Conditions
12:53 AM 57.0 °F 52.0 °F 83% 30.02 in 10.0 mi North 5.8 mph - N/A   Overcast
1:35 AM 55.9 °F 52.0 °F 87% 30.01 in 10.0 mi Variable 3.5 mph - N/A   Overcast
1:53 AM 55.9 °F 53.1 °F 90% 30.01 in 9.0 mi North 3.5 mph - N/A   Overcast
2:53 AM 55.9 °F 53.1 °F 90% 30.03 in 9.0 mi North 5.8 mph - N/A   Overcast
3:40 AM 55.9 °F 53.1 °F 90% 30.04 in 9.0 mi Variable 3.5 mph - N/A   Overcast
3:53 AM 55.9 °F 53.1 °F 90% 30.04 in 9.0 mi Variable 3.5 mph - N/A   Overcast
4:08 AM 55.9 °F 53.1 °F 90% 30.04 in 9.0 mi NNW 3.5 mph - N/A   Overcast
4:25 AM 55.0 °F 52.0 °F 89% 30.04 in 9.0 mi Calm Calm - N/A   Overcast
4:41 AM 55.0 °F 52.0 °F 89% 30.05 in 9.0 mi Calm Calm - N/A   Mostly Cloudy
4:53 AM 55.0 °F 53.1 °F 93% 30.05 in 9.0 mi Calm Calm - N/A   Mostly Cloudy
5:07 AM 55.0 °F 52.0 °F 89% 30.05 in 8.0 mi Calm Calm - N/A   Mostly Cloudy
5:53 AM 54.0 °F 51.1 °F 90% 30.06 in 10.0 mi Calm Calm - N/A   Clear
6:53 AM 54.0 °F 52.0 °F 93% 30.07 in 9.0 mi SSW 3.5 mph - N/A   Clear
7:39 AM 55.9 °F 54.0 °F 93% 30.08 in 9.0 mi SSW 4.6 mph - N/A   Partly Cloudy
7:53 AM 55.9 °F 54.0 °F 93% 30.08 in 9.0 mi WSW 5.8 mph - N/A   Scattered Clouds
8:29 AM 55.9 °F 55.0 °F 97% 30.09 in 1.8 mi WSW 8.1 mph - N/A   Mostly Cloudy
8:37 AM 55.9 °F 55.0 °F 97% 30.09 in 2.0 mi West 6.9 mph - N/A   Mostly Cloudy
8:47 AM 55.4 °F 55.4 °F 100% 30.09 in 0.2 mi WSW 4.6 mph - N/A Fog Fog
8:53 AM 55.9 °F 55.0 °F 97% 30.09 in 0.5 mi West 4.6 mph - N/A Fog Fog
9:10 AM 55.9 °F 55.9 °F 100% 30.10 in 2.5 mi West 4.6 mph - N/A   Overcast
9:17 AM 55.9 °F 55.0 °F 97% 30.10 in 3.0 mi West 4.6 mph - N/A   Overcast
9:21 AM 55.9 °F 55.0 °F 97% 30.10 in 4.0 mi West 4.6 mph - N/A   Mostly Cloudy
9:53 AM 59.0 °F 55.9 °F 90% 30.11 in 4.0 mi WSW 4.6 mph - N/A   Mostly Cloudy
10:00 AM 60.1 °F 55.9 °F 86% 30.11 in 10.0 mi Variable 3.5 mph - N/A   Mostly Cloudy
10:53 AM 63.0 °F 53.1 °F 70% 30.11 in 10.0 mi NW 5.8 mph - N/A   Scattered Clouds
11:53 AM 64.9 °F 50.0 °F 58% 30.12 in 10.0 mi Variable 3.5 mph - N/A   Clear
12:53 PM 66.9 °F 51.1 °F 57% 30.11 in 10.0 mi Variable 4.6 mph - N/A   Scattered Clouds
1:53 PM 69.1 °F 48.9 °F 49% 30.11 in 10.0 mi North 5.8 mph - N/A   Clear
2:53 PM 70.0 °F 51.1 °F 51% 30.09 in 10.0 mi Variable 3.5 mph - N/A   Scattered Clouds
3:53 PM 69.1 °F 51.1 °F 53% 30.08 in 10.0 mi WNW 6.9 mph - N/A   Clear
4:53 PM 69.1 °F 50.0 °F 51% 30.08 in 10.0 mi West 5.8 mph - N/A   Clear
5:53 PM 68.0 °F 50.0 °F 52% 30.07 in 10.0 mi West 4.6 mph - N/A   Clear
6:53 PM 68.0 °F 50.0 °F 52% 30.06 in 10.0 mi WNW 3.5 mph - N/A   Clear
7:53 PM 66.9 °F 50.0 °F 54% 30.06 in 10.0 mi West 3.5 mph - N/A   Clear
8:53 PM 64.0 °F 51.1 °F 63% 30.06 in 10.0 mi Calm Calm - N/A   Clear
9:53 PM 64.0 °F 50.0 °F 60% 30.06 in 10.0 mi Calm Calm - N/A   Clear
10:53 PM 62.1 °F 50.0 °F 65% 30.05 in 10.0 mi Calm Calm - N/A   Clear
11:53 PM 60.1 °F 50.0 °F 69% 30.04 in 10.0 mi North 3.5 mph - N/A   Clear